Location: San Martino di Castrozza
(46.2667°N, 11.8000°E)
Time: 16:41:35
(UTC+00:00)

Cosmos 2278 Rocket - Pass Details

Date: 23 April 2021
Orbit: 843 x 844 km, 71.0° (Epoch: 13 May)

Event Time Altitude Azimuth Distance (km) Brightness Sun altitude
Exits shadow 01:01:24 58° 277° (W) 979 2.3 -26.2°
Maximum altitude 01:01:52 60° 300° (WNW) 960 2.4 -26.1°
Drops below altitude 10° 01:07:29 10° 21° (NNE) 2,472 5.6 -25.6°
Sets 01:09:59 0° 25° (NNE) 3,411 6.7 -25.4°
